Sitka, Alaska, United States (99835)
Lat: 57.05N, Lon: 135.33W
Wx Zone: AKZ023
Local Info
Past Weather Observations for Saturday, July 19, 2014

NOTE: This archive is for the closest National Weather Service station to Sitka. Information may differ from the station used for current weather conditions.

Click here for Long-term Archive

Time Weather Temperature Dewpoint Humidity Pressure Winds Precip Visibility
23:53
Overcast
54°F / 12°C 52°F / 11°C 94% 29.92 in
(1013 mb)
E 3.5 mph
(E 6 kph)
- 10SM
23:23
Partly Cloudy
54°F / 12°C 52°F / 11°C 94% 29.92 in
(1013 mb)
E 3.5 mph
(E 6 kph)
- 10SM
23:07
Mostly Cloudy
55°F / 13°C 52°F / 11°C 88% 29.92 in
(1013 mb)
E 3.5 mph
(E 6 kph)
- 10SM
22:53
Overcast
55°F / 13°C 52°F / 11°C 88% 29.92 in
(1013 mb)
E 4.6 mph
(E 7 kph)
- 10SM
22:38
Mostly Cloudy
55°F / 13°C 52°F / 11°C 88% 29.92 in
(1013 mb)
E 3.5 mph
(E 6 kph)
- 10SM
22:03
Overcast
55°F / 13°C 52°F / 11°C 88% 29.92 in
(1013 mb)
E 3.5 mph
(E 6 kph)
- 10SM
21:53
Overcast
55°F / 13°C 54°F / 12°C 94% 29.92 in
(1013 mb)
ENE 4.6 mph
(ENE 7 kph)
- 10SM
20:53
Overcast
57°F / 14°C 54°F / 12°C 88% 29.92 in
(1013 mb)
Calm - 10SM
19:53
Overcast
57°F / 14°C 52°F / 11°C 82% 29.89 in
(1012 mb)
Calm - 10SM
19:31
Overcast
57°F / 14°C 52°F / 11°C 82% 29.89 in
(1012 mb)
Calm - 10SM
18:53
Overcast
57°F / 14°C 52°F / 11°C 82% 29.92 in
(1013 mb)
SSW 3.5 mph
(SSW 6 kph)
- 10SM
17:53
Overcast
59°F / 15°C 54°F / 12°C 82% 29.89 in
(1012 mb)
WNW 4.6 mph
(WNW 7 kph)
- 10SM
16:53
Overcast
59°F / 15°C 54°F / 12°C 82% 29.89 in
(1012 mb)
NW 5.8 mph
(NW 9 kph)
- 10SM
15:53
Overcast
59°F / 15°C 52°F / 11°C 77% 29.89 in
(1012 mb)
NW 8.1 mph
(NW 13 kph)
- 10SM
15:08
Overcast
59°F / 15°C 52°F / 11°C 77% 29.89 in
(1012 mb)
NW 9.2 mph
(NW 15 kph)
- 10SM
14:53
Overcast
61°F / 16°C 52°F / 11°C 72% 29.89 in
(1012 mb)
WNW 4.6 mph
(WNW 7 kph)
- 10SM
13:53
Overcast
59°F / 15°C 52°F / 11°C 77% 29.89 in
(1012 mb)
NW 6.9 mph
(NW 11 kph)
- 10SM
12:53
Overcast
57°F / 14°C 54°F / 12°C 88% 29.86 in
(1011 mb)
NW 4.6 mph
(NW 7 kph)
- 10SM
12:27
Overcast
57°F / 14°C 54°F / 12°C 88% 29.86 in
(1011 mb)
NW 4.6 mph
(NW 7 kph)
- 10SM
11:53
Overcast
55°F / 13°C 54°F / 12°C 94% 29.86 in
(1011 mb)
NW 6.9 mph
(NW 11 kph)
- 9SM
10:53
Overcast
Fog And Mist
55°F / 13°C 54°F / 12°C 94% 29.83 in
(1010 mb)
SSW 3.5 mph
(SSW 6 kph)
- 5SM
10:20
Overcast
Fog And Mist
55°F / 13°C 55°F / 13°C 100% 29.83 in
(1010 mb)
SW 4.6 mph
(SW 7 kph)
- 3SM
10:10
Overcast
Fog And Mist
55°F / 13°C 55°F / 13°C 100% 29.83 in
(1010 mb)
SW 3.5 mph
(SW 6 kph)
- 2 1/2SM
10:01
Overcast
Fog And Mist
55°F / 13°C 54°F / 12°C 94% 29.83 in
(1010 mb)
Calm - 3SM
09:53
Overcast
Fog And Mist
57°F / 14°C 54°F / 12°C 88% 29.83 in
(1010 mb)
S 3.5 mph
(S 6 kph)
- 5SM
08:53
Overcast
Fog And Mist
55°F / 13°C 54°F / 12°C 94% 29.8 in
(1009 mb)
Calm - 5SM
07:53
Overcast
55°F / 13°C 52°F / 11°C 88% 29.77 in
(1008 mb)
Calm - 10SM
06:53
Overcast
55°F / 13°C 52°F / 11°C 88% 29.77 in
(1008 mb)
Calm - 10SM
05:53
Overcast
54°F / 12°C 52°F / 11°C 94% 29.74 in
(1007 mb)
Calm - 10SM
05:11
Mostly Cloudy
54°F / 12°C 52°F / 11°C 94% 29.74 in
(1007 mb)
SE 3.5 mph
(SE 6 kph)
- 10SM
04:53
Overcast
54°F / 12°C 52°F / 11°C 94% 29.74 in
(1007 mb)
ESE 3.5 mph
(ESE 6 kph)
0.00 in
(0.00 mm)
10SM
03:53
Overcast
54°F / 12°C 52°F / 11°C 94% 29.71 in
(1006 mb)
Calm 0.00 in
(0.00 mm)
10SM
02:53
Mostly Cloudy
54°F / 12°C 52°F / 11°C 94% 29.71 in
(1006 mb)
Calm - 10SM
01:53
Mostly Cloudy
54°F / 12°C 52°F / 11°C 94% 29.71 in
(1006 mb)
Calm - 10SM
00:53
Overcast
55°F / 13°C 52°F / 11°C 88% 29.68 in
(1005 mb)
Calm - 10SM
Time Weather Temperature Dewpoint Humidity Pressure Winds Precip Visibility


Weather for websites

WeatherForYou.com, LLC is not responsible for any damages or problems caused by this service. Current weather conditions are obtained from the closest station including government and personal stations which may have varying degrees of accuracy. Weather forecasts are derived from the NOAA NDFD. Like all things, this site belongs to Jesus Christ... He just trusts me to maintain it. If you have any questions or comments email webmaster@weatherforyou.com

Copyright © 2014, WeatherForYou.com LLC. All rights reserved.